This is the latest recevied weather packets stored in our database for station/object KT4LH-10. If no packets are shown the sender has not sent any weather packets the latest 10 day(s).
| Time | Temp. | Humidity | Pressure | Rain* | Wind** | Luminosity | Snow |
|---|---|---|---|---|---|---|---|
| 1777438898 | 16.67° C | 82% | 1015.3 hPa | 0 mm | - | - | - |
| 1777438598 | 16.67° C | 82% | 1015.3 hPa | 1.27 mm | - | - | - |
| 1777438299 | 16.67° C | 82% | 1015.3 hPa | 2.03 mm | - | - | - |
| 1777437999 | 16.67° C | 81% | 1015.3 hPa | 2.29 mm | - | - | - |
| 1777437699 | 16.67° C | 81% | 1015.3 hPa | 2.29 mm | - | - | - |
| 1777437399 | 16.67° C | 81% | 1015.3 hPa | 2.29 mm | - | - | - |
| 1777437099 | 16.67° C | 81% | 1015.3 hPa | 2.29 mm | - | - | - |
| 1777436838 | 16.67° C | 81% | 1015.3 hPa | 2.29 mm | - | - | - |
| 1777436799 | 16.67° C | 81% | 1015.3 hPa | 2.29 mm | - | - | - |
| 1777436499 | 16.67° C | 80% | 1015.3 hPa | 2.29 mm | - | - | - |
| 1777436199 | 16.67° C | 80% | 1015.3 hPa | 2.29 mm | - | - | - |
| 1777435899 | 17.22° C | 80% | 1015.3 hPa | 2.29 mm | - | - | - |
| 1777435599 | 17.22° C | 79% | 1015.3 hPa | 3.81 mm | - | - | - |
| 1777435299 | 17.22° C | 78% | 1015.3 hPa | 3.81 mm | - | - | - |
| 1777434998 | 17.78° C | 77% | 1015.3 hPa | 3.81 mm | - | - | - |
| 1777434698 | 17.78° C | 75% | 1015.3 hPa | 0 mm | - | - | - |
| 1777434398 | 18.89° C | 72% | 1015.3 hPa | 0 mm | - | - | - |
| 1777434098 | 19.44° C | 71% | 1015.3 hPa | 0 mm | - | - | - |
| 1777433798 | 20° C | 75% | 1015.3 hPa | 0 mm | - | - | - |
| 1777433498 | 20° C | 76% | 1015.3 hPa | 0 mm | - | - | - |
| 1777433198 | 20° C | 75% | 1015.3 hPa | 0 mm | - | - | - |
| 1777432898 | 20° C | 75% | 1015.3 hPa | 0 mm | - | - | - |
| 1777432598 | 20° C | 75% | 1015.3 hPa | 0 mm | - | - | - |
| 1777432298 | 20.56° C | 75% | 1015.3 hPa | 0 mm | - | - | - |
| 1777431998 | 20.56° C | 75% | 1015.3 hPa | 0 mm | - | - | - |
* Rain latest hour (hover to see other rain measurements)
** Current wind speed in m/s (hover to see current wind gust speed)